Location: Vista Encantada
(35.1109°N, 106.5681°W)
Time: 08:40:33
(UTC+00:00)

Okean 1-7 Rocket - Pass Details

Date: 29 October 2020
Orbit: 615 x 650 km, 82.5° (Epoch: 04 December)

Event Time Altitude Azimuth Distance (km) Brightness Sun altitude
Rises 12:11:41 0° 193° (SSW) 2,950 7.0 -15.6°
Reaches altitude 10° 12:13:57 10° 197° (SSW) 2,042 6.1 -15.1°
Maximum altitude 12:18:26 61° 278° (W) 731 3.6 -14.2°
Drops below altitude 10° 12:22:55 10° 359° (N) 2,040 6.1 -13.3°
Sets 12:25:12 0° 3° (N) 2,948 7.0 -12.8°
